New York Downtown Manhattan/w, NY

3:49 PM EDT on August 19, 2017 (GMT -0400)
New York Downtown Manhattan/w

Weather History for KJRB - January, 2014

Change the Weather History Date:

Friday, January 24, 2014

  Actual Average (KEWR) Record (KEWR)
Temperature  
Mean Temperature 18 °F -  
Max Temperature 23 °F 42 °F 68 °F (1967)
Min Temperature 12 °F 27 °F 2 °F (1936)
Degree Days  
Heating Degree Days 48    
Moisture  
Dew Point 6 °F    
Average Humidity 60    
Maximum Humidity 73    
Minimum Humidity 42    
Precipitation  
Precipitation 0.62 in - - ()
Sea Level Pressure  
Sea Level Pressure 30.30 in    
Wind  
Wind Speed 7 mph (West)    
Max Wind Speed 18 mph    
Max Gust Speed 55 mph    
Visibility 10 miles    
Events      
Averages and records for this station are not official NWS values.
T = Trace of Precipitation, MM = Missing Value Source: NWS Daily Summary

Daily Weather History Graph

Daily Weather History Graph

Search for Another Location

Airport or City:

Trip Planner

Search our weather history database for the weather conditions in past years. The results will help you decide how hot, cold, wet, or windy it might be!

Date:

Astronomy

Jan. 24, 2014 Rise Set
Actual Time 7:12 AM EST 5:03 PM EST
Civil Twilight 6:43 AM EST 5:33 PM EST
Nautical Twilight 6:10 AM EST 6:06 PM EST
Astronomical Twilight 5:37 AM EST 6:39 PM EST
Moon 12:36 AM EST (1/24) 11:21 AM EST (1/24)
Length of Visible Light 10h 50m
Length of Day
9h 51m
Last Quarter, 45% of the Moon is Illuminated
Jan 24
Last Quarter
Jan 30
New
Feb 6
First Quarter
Feb 14
Full
Feb 22
Last Quarter

Hourly Weather History & Observations

Time (EST) Temp. Windchill Dew Point Humidity Pressure Visibility Wind Dir Wind Speed Gust Speed Precip Events Conditions
12:15 AM 17.6 °F 12.3 °F 8.6 °F 68% 30.31 in 10.0 mi West 3.5 mph - N/A   Clear
12:35 AM 17.6 °F 9.3 °F 8.6 °F 68% 30.31 in 10.0 mi West 5.8 mph - N/A   Clear
12:55 AM 17.6 °F 9.3 °F 8.6 °F 68% 30.32 in 10.0 mi West 5.8 mph - N/A   Clear
1:15 AM 17.6 °F 12.3 °F 10.4 °F 73% 30.32 in 10.0 mi West 3.5 mph - N/A   Clear
1:35 AM 17.6 °F 7.3 °F 8.6 °F 68% 30.31 in 10.0 mi West 8.1 mph 20.7 mph N/A   Clear
1:55 AM 17.6 °F - 8.6 °F 68% 30.32 in 10.0 mi Calm Calm - N/A   Clear
2:15 AM 17.6 °F 12.3 °F 8.6 °F 68% 30.33 in 10.0 mi West 3.5 mph - N/A   Clear
2:35 AM 15.8 °F 10.2 °F 6.8 °F 68% 30.33 in 10.0 mi West 3.5 mph - N/A   Clear
2:55 AM 15.8 °F - 8.6 °F 73% 30.33 in 10.0 mi Calm Calm - N/A   Clear
3:15 AM 15.8 °F 7.2 °F 6.8 °F 68% 30.33 in 10.0 mi West 5.8 mph - N/A   Clear
3:35 AM 15.8 °F 5.1 °F 6.8 °F 68% 30.33 in 10.0 mi West 8.1 mph - N/A   Clear
3:55 AM 15.8 °F 10.2 °F 8.6 °F 73% 30.34 in 10.0 mi West 3.5 mph - N/A   Clear
4:15 AM 15.8 °F 8.6 °F 6.8 °F 68% 30.34 in 10.0 mi West 4.6 mph - N/A   Clear
4:35 AM 14.0 °F 8.2 °F 5.0 °F 67% 30.33 in 10.0 mi West 3.5 mph - N/A   Clear
4:55 AM 14.0 °F - 5.0 °F 67% 30.34 in 10.0 mi Calm Calm - N/A   Clear
5:15 AM 14.0 °F 5.1 °F 3.2 °F 62% 30.34 in 10.0 mi West 5.8 mph - N/A   Clear
5:35 AM 14.0 °F 2.9 °F 3.2 °F 62% 30.35 in 10.0 mi West 8.1 mph - N/A   Clear
5:55 AM 14.0 °F 6.5 °F 6.8 °F 73% 30.35 in 10.0 mi WNW 4.6 mph - N/A   Clear
6:15 AM 14.0 °F 8.2 °F 5.0 °F 67% 30.36 in 10.0 mi North 3.5 mph - N/A   Clear
6:35 AM 14.0 °F 8.2 °F 3.2 °F 62% 30.37 in 10.0 mi West 3.5 mph - N/A   Clear
6:55 AM 12.2 °F 1.7 °F 3.2 °F 67% 30.38 in 10.0 mi West 6.9 mph - N/A   Clear
7:15 AM 12.2 °F -0.2 °F 3.2 °F 67% 30.39 in 10.0 mi West 9.2 mph - N/A   Clear
7:35 AM 12.2 °F 6.1 °F 3.2 °F 67% 30.39 in 10.0 mi West 3.5 mph - N/A   Clear
7:55 AM 12.2 °F -0.2 °F 3.2 °F 67% 30.40 in 10.0 mi West 9.2 mph 18.4 mph N/A   Clear
8:15 AM 14.0 °F 5.1 °F 3.2 °F 62% 30.40 in 10.0 mi West 5.8 mph - N/A   Clear
8:35 AM 15.8 °F 8.6 °F 3.2 °F 58% 30.40 in 10.0 mi WNW 4.6 mph - N/A   Clear
8:55 AM 15.8 °F 6.1 °F 3.2 °F 58% 30.40 in 10.0 mi West 6.9 mph 39.1 mph 0.08 in   Clear
9:15 AM 15.8 °F 8.6 °F 3.2 °F 58% 30.41 in 10.0 mi SW 4.6 mph - N/A   Clear
9:35 AM 15.8 °F 10.2 °F 3.2 °F 58% 30.41 in 10.0 mi West 3.5 mph - N/A   Clear
9:55 AM 15.8 °F 8.6 °F 1.4 °F 53% 30.41 in 10.0 mi West 4.6 mph - N/A   Clear
10:15 AM 17.6 °F 12.3 °F 3.2 °F 53% 30.41 in 10.0 mi West 3.5 mph - N/A   Clear
10:35 AM 17.6 °F 7.3 °F 3.2 °F 53% 30.40 in 10.0 mi West 8.1 mph - 0.01 in   Clear
10:55 AM 17.6 °F 10.7 °F 3.2 °F 53% 30.39 in 10.0 mi NW 4.6 mph 16.1 mph 0.01 in   Clear
11:15 AM 17.6 °F 10.7 °F 3.2 °F 53% 30.39 in 10.0 mi WSW 4.6 mph - N/A   Clear
11:35 AM 19.4 °F 8.6 °F 3.2 °F 49% 30.38 in 10.0 mi WSW 9.2 mph 18.4 mph N/A   Clear
11:55 AM 19.4 °F 9.5 °F 3.2 °F 49% 30.37 in 10.0 mi WSW 8.1 mph 35.7 mph 0.06 in   Clear
12:15 PM 19.4 °F 10.4 °F 3.2 °F 49% 30.36 in 10.0 mi WSW 6.9 mph 34.5 mph 0.03 in   Clear
12:35 PM 19.4 °F 10.4 °F 3.2 °F 49% 30.34 in 10.0 mi WSW 6.9 mph - 0.03 in   Clear
12:55 PM 21.2 °F 10.9 °F 3.2 °F 46% 30.34 in 10.0 mi West 9.2 mph 33.4 mph 0.07 in   Clear
1:15 PM 21.2 °F 9.5 °F 3.2 °F 46% 30.32 in 10.0 mi West 11.5 mph 17.3 mph 0.05 in   Clear
1:35 PM 21.2 °F 11.7 °F 5.0 °F 50% 30.31 in 10.0 mi WSW 8.1 mph - 0.05 in   Clear
1:55 PM 21.2 °F 12.6 °F 3.2 °F 46% 30.30 in 10.0 mi WSW 6.9 mph 16.1 mph 0.05 in   Clear
2:15 PM 21.2 °F 9.5 °F 3.2 °F 46% 30.29 in 10.0 mi West 11.5 mph 19.6 mph N/A   Clear
2:35 PM 21.2 °F 11.7 °F 1.4 °F 42% 30.28 in 10.0 mi West 8.1 mph 16.1 mph N/A   Clear
2:55 PM 23.0 °F 11.1 °F 3.2 °F 43% 30.27 in 10.0 mi WSW 12.7 mph 18.4 mph N/A   Clear
3:15 PM 21.2 °F 12.6 °F 3.2 °F 46% 30.27 in 10.0 mi West 6.9 mph - N/A   Clear
3:35 PM 21.2 °F 8.3 °F 3.2 °F 46% 30.27 in 10.0 mi WSW 13.8 mph 55.2 mph 0.07 in   Clear
3:55 PM 21.2 °F 8.9 °F 1.4 °F 42% 30.27 in 10.0 mi West 12.7 mph - 0.10 in   Clear
4:15 PM 21.2 °F 10.1 °F 3.2 °F 46% 30.26 in 10.0 mi West 10.4 mph 19.6 mph N/A   Clear
4:35 PM 21.2 °F 10.1 °F 3.2 °F 46% 30.25 in 10.0 mi West 10.4 mph 17.3 mph 0.04 in   Clear
4:55 PM 19.4 °F 5.5 °F 3.2 °F 49% 30.24 in 10.0 mi WSW 15.0 mph 20.7 mph 0.04 in   Clear
5:15 PM 19.4 °F 6.6 °F 6.8 °F 58% 30.24 in 10.0 mi West 12.7 mph 17.3 mph N/A   Clear
5:35 PM 19.4 °F 5.5 °F 6.8 °F 58% 30.24 in 10.0 mi West 15.0 mph 23.0 mph N/A   Clear
5:55 PM 19.4 °F 4.1 °F 8.6 °F 63% 30.25 in 10.0 mi WSW 18.4 mph 50.6 mph 0.06 in   Clear
6:15 PM 19.4 °F 5.5 °F 6.8 °F 58% 30.26 in 10.0 mi West 15.0 mph 36.8 mph 0.07 in   Clear
6:35 PM 19.4 °F 5.0 °F 6.8 °F 58% 30.26 in 10.0 mi West 16.1 mph 21.9 mph 0.07 in   Clear
6:55 PM 19.4 °F 4.1 °F 6.8 °F 58% 30.25 in 10.0 mi West 18.4 mph 21.9 mph 0.15 in   Clear
7:15 PM 19.4 °F 4.1 °F 8.6 °F 63% 30.24 in 10.0 mi West 18.4 mph 25.3 mph N/A   Clear
7:35 PM 17.6 °F 2.7 °F 6.8 °F 63% 30.24 in 10.0 mi West 16.1 mph 24.2 mph N/A   Clear
7:55 PM 17.6 °F 2.2 °F 6.8 °F 63% 30.23 in 10.0 mi West 17.3 mph 21.9 mph N/A   Clear
8:15 PM 17.6 °F 3.2 °F 6.8 °F 63% 30.23 in 10.0 mi WSW 15.0 mph 24.2 mph N/A   Clear
8:35 PM 17.6 °F 4.3 °F 6.8 °F 63% 30.23 in 10.0 mi WSW 12.7 mph 19.6 mph N/A   Clear
8:55 PM 17.6 °F 3.7 °F 6.8 °F 63% 30.22 in 10.0 mi WSW 13.8 mph - N/A   Clear
9:15 PM 17.6 °F 5.0 °F 6.8 °F 63% 30.21 in 10.0 mi WSW 11.5 mph - N/A   Scattered Clouds
9:35 PM 19.4 °F 6.0 °F 8.6 °F 63% 30.19 in 10.0 mi SW 13.8 mph 18.4 mph N/A   Scattered Clouds
9:55 PM 19.4 °F 5.0 °F 8.6 °F 63% 30.19 in 10.0 mi WSW 16.1 mph - N/A   Clear
10:15 PM 19.4 °F 5.5 °F 8.6 °F 63% 30.18 in 10.0 mi WSW 15.0 mph 20.7 mph N/A   Clear
10:35 PM 19.4 °F 5.5 °F 8.6 °F 63% 30.17 in 10.0 mi WSW 15.0 mph 21.9 mph N/A   Partly Cloudy
10:55 PM 19.4 °F 5.5 °F 8.6 °F 63% 30.16 in 10.0 mi WSW 15.0 mph 19.6 mph N/A   Clear
11:15 PM 19.4 °F 6.0 °F 8.6 °F 63% 30.15 in 10.0 mi SW 13.8 mph - N/A   Clear
11:35 PM 19.4 °F 5.0 °F 10.4 °F 68% 30.13 in 10.0 mi WSW 16.1 mph 24.2 mph N/A   Clear
11:55 PM 19.4 °F 5.5 °F 10.4 °F 68% 30.12 in 10.0 mi SW 15.0 mph - N/A   Clear